Current weather by "City, St" or "zip code"  
 
Advertise Here

Current Conditions: Houston, Pearland Regional Airport, TX

Overcast


71.0 F

Last Updated on Jan 25 2021, 2:53 am CST
Humidity: 87%
Wind Speed: S 15.0 G 21.9 mph
Barometer 29.75 in
Dewpoint: 66.9 F
Visibility: 7.00 mi
Precip: --
Heat Index: NA
Wind Chill: NA
Current conditions at:

Houston, Pearland Regional Airport, TX (KLVJ)

Lat: 29.52111 Lon: 95.24194

Local Radar Image active severe weather and emergency alerts image image weather storm and storm spotter reports image weather observation monitoring service image
Local
Radar
Active
Alerts
Storm Reports Obs
Monitoring

Sign-up For Email & Text Message Weather Alert Notification Services


Advertise Here

Observation History for Houston, Pearland Regional Airport, TX


Time Wind
(mph)
Vis
(mi)
Weather Precip (in) Temperature (F) Relative
Humidity
Wind
Chill
(F)
Heat
Index
(F)
Pressure
Air Dwpt altimeter
(in)
sea level
(mb)
Rmks
2:53 am CST S 15.0 G 21.9 7.00 Overcast -- 71.0 66.9 87% NA NA 29.75 1007.5
1:53 am CST S 12.7 G 21.9 7.00 Overcast -- 71.0 66.9 87% NA NA 29.78 1008.2
12:53 am CST S 12.7 G 21.9 8.00 Overcast -- 71.0 66.9 87% NA NA 29.79 1008.6
11:53 pm CST S 11.5 8.00 Overcast -- 71.0 68.0 90% NA NA 29.82 1009.8
10:53 pm CST S 12.7 8.00 Overcast -- 71.0 68.0 90% NA NA 29.81 1009.2
9:53 pm CST S 11.5 G 19.6 8.00 Overcast -- 71.0 68.0 90% NA NA 29.82 1009.8
8:53 pm CST SE 12.7 9.00 Overcast Trace 71.0 66.9 87% NA NA 29.83 1010.0
7:53 pm CST SE 13.8 8.00 Overcast -- 70.0 66.9 90% NA NA 29.84 1010.3
6:53 pm CST SE 11.5 8.00 Overcast -- 70.0 66.0 87% NA NA 29.86 1011.1
5:53 pm CST SE 12.7 9.00 Overcast -- 71.0 66.0 84% NA NA 29.88 1011.6
4:53 pm CST S 11.5 G 21.9 9.00 Overcast -- 72.0 66.0 82% NA NA 29.89 1012.0
3:53 pm CST S 17.3 G 24.2 9.00 Overcast -- 74.0 66.0 76% NA NA 29.89 1012.2
2:53 pm CST S 16.1 G 26.5 10.00 Overcast -- 75.0 66.0 74% NA NA 29.89 1012.2
1:53 pm CST SE 16.1 G 24.2 10.00 Partly Cloudy -- 77.0 66.0 69% NA NA 29.89 1012.2
12:53 pm CST S 12.7 G 21.9 9.00 A Few Clouds -- 75.0 66.9 76% NA NA 29.92 1013.2
11:53 am CST S 13.8 G 21.9 9.00 Mostly Cloudy -- 75.0 68.0 79% NA NA 29.96 1014.3
10:53 am CST S 13.8 6.00 Fog/Mist -- 72.0 68.0 87% NA NA 29.97 1014.7
9:53 am CST S 11.5 4.00 Fog/Mist -- 69.0 68.0 96% NA NA 29.98 1015.1
8:53 am CST S 5.8 1.25 Fog/Mist -- 66.0 64.9 96% NA NA 29.98 1015.2
7:53 am CST N 0.0 0.25 Fog -- 64.0 62.1 93% NA NA 29.98 1015.0
6:53 am CST E 3.5 2.00 Fog/Mist Trace 63.0 61.0 93% NA NA 29.98 1015.1
5:53 am CST NE 3.5 2.50 Fog/Mist Trace 62.0 61.0 96% NA NA 29.97 1014.9
4:53 am CST E 3.5 0.50 Fog -- 62.0 60.1 93% NA NA 29.96 1014.4
3:53 am CST E 3.5 0.50 Fog -- 61.0 60.1 97% NA NA 29.97 1014.8

Regional Weather Observation


Houston, Houston Hobby Airport, TX (KHOU)

Overcast
72.0 F

Houston, Sugar Land Municipal / Hull Field Airport, TX (KSGR)

Overcast
74.0 F

Houston / Ellington, TX (KEFD)

Overcast
70.0 F

La Porte Municipal Airport, TX (KT41)

Overcast
71.0 F

Houston Southwest Airport, TX (KAXH)

Overcast
70.0 F

Houston, Pearland Regional Airport, TX (KLVJ)

Overcast
71.0 F